Cuero, Texas, United States (77954)
Lat: 29.09N, Lon: 97.29W
Wx Zone: TXZ224
Local Info
Past Weather Observations for Today

NOTE: This archive is for the closest National Weather Service station to Cuero. Information may differ from the station used for current weather conditions.

Click here for Long-term Archive

Time Weather Temperature Dewpoint Humidity Pressure Winds Precip Visibility
22:51
Clear
79°F / 26°C 75°F / 24°C 89% 29.92 in
(1013 mb)
SE 5.8 mph
(SE 9 kph)
- 10SM
21:51
Clear
82°F / 28°C 75°F / 24°C 79% 29.92 in
(1013 mb)
SSE 8.1 mph
(SSE 13 kph)
- 10SM
20:51
Clear
82°F / 28°C 75°F / 24°C 79% 29.89 in
(1012 mb)
SSE 10.4 mph
(SSE 17 kph)
- 10SM
19:51
Clear
84°F / 29°C 73°F / 23°C 70% 29.89 in
(1012 mb)
SSE 9.2 mph
(SSE 15 kph)
- 10SM
18:51
Clear
88°F / 31°C 70°F / 21°C 55% 29.89 in
(1012 mb)
S 11.5 mph
(S 19 kph)
- 10SM
17:51
Mostly Cloudy
90°F / 32°C 72°F / 22°C 55% 29.89 in
(1012 mb)
S 13.8 mph
(S 22 kph)
- 10SM
16:51
Clear
93°F / 34°C 72°F / 22°C 49% 29.86 in
(1011 mb)
S 15 mph
(S 24 kph)
- 10SM
15:51
Clear
93°F / 34°C 72°F / 22°C 49% 29.86 in
(1011 mb)
S 15 mph
(S 24 kph)
- 10SM
14:51
Clear
93°F / 34°C 73°F / 23°C 53% 29.89 in
(1012 mb)
SSE 12.7 mph
(SSE 20 kph)
- 10SM
13:51
Partly Cloudy
91°F / 33°C 73°F / 23°C 56% 29.89 in
(1012 mb)
SSE 16.1 mph
(SSE 26 kph)
- 10SM
12:51
Partly Cloudy
93°F / 34°C 72°F / 22°C 49% 29.89 in
(1012 mb)
Calm - 10SM
11:51
Partly Cloudy
91°F / 33°C 72°F / 22°C 52% 29.92 in
(1013 mb)
Variable 5.8 mph
(Variable 9 kph)
- 10SM
10:51
Partly Cloudy
90°F / 32°C 72°F / 22°C 55% 29.95 in
(1014 mb)
Variable 3.5 mph
(Variable 6 kph)
- 10SM
09:51
Mostly Cloudy
88°F / 31°C 73°F / 23°C 62% 29.95 in
(1014 mb)
SSW 8.1 mph
(SSW 13 kph)
- 10SM
08:51
Partly Cloudy
84°F / 29°C 75°F / 24°C 74% 29.92 in
(1013 mb)
SW 6.9 mph
(SW 11 kph)
- 9SM
08:14
Partly Cloudy
82°F / 28°C 77°F / 25°C 84% 29.92 in
(1013 mb)
Calm - 10SM
07:53
Clear
81°F / 27°C 77°F / 25°C 89% 29.92 in
(1013 mb)
Calm - 9SM
07:51
Clear
Fog And Mist
81°F / 27°C 77°F / 25°C 89% 29.92 in
(1013 mb)
Calm - 4SM
06:58
Partly Cloudy
Fog And Mist
75°F / 24°C 75°F / 24°C 100% 29.92 in
(1013 mb)
Calm - 4SM
06:56
Partly Cloudy
Fog And Mist
75°F / 24°C 75°F / 24°C 100% 29.92 in
(1013 mb)
Calm - 1 3/4SM
06:51
Mostly Cloudy
Fog And Mist
75°F / 24°C 75°F / 24°C 100% 29.92 in
(1013 mb)
Calm - 3SM
06:31
Mostly Cloudy
Fog And Mist
72°F / 22°C 72°F / 22°C 100% 29.92 in
(1013 mb)
Calm - 3SM
06:22
Partly Cloudy
Fog And Mist
72°F / 22°C 72°F / 22°C 100% 29.92 in
(1013 mb)
Calm - 3SM
06:21
Partly Cloudy
Fog And Mist
72°F / 22°C 72°F / 22°C 100% 29.92 in
(1013 mb)
N 3.5 mph
(N 6 kph)
- 2 1/2SM
05:58
Clear
Fog And Mist
72°F / 22°C 72°F / 22°C 100% 29.92 in
(1013 mb)
Calm - 3SM
05:51
Clear
Fog And Mist
72°F / 22°C 72°F / 22°C 100% 29.92 in
(1013 mb)
Calm - 4SM
04:51
Clear
Fog And Mist
72°F / 22°C 72°F / 22°C 100% 29.89 in
(1012 mb)
Calm - 5SM
03:51
Partly Cloudy
73°F / 23°C 73°F / 23°C 100% 29.89 in
(1012 mb)
Calm - 8SM
02:51
Partly Cloudy
75°F / 24°C 73°F / 23°C 94% 29.89 in
(1012 mb)
Calm - 10SM
02:33
Mostly Cloudy
75°F / 24°C 73°F / 23°C 94% 29.89 in
(1012 mb)
S 3.5 mph
(S 6 kph)
- 10SM
01:51
Clear
75°F / 24°C 73°F / 23°C 94% 29.89 in
(1012 mb)
Calm - 10SM
00:51
Clear
75°F / 24°C 73°F / 23°C 94% 29.89 in
(1012 mb)
SE 4.6 mph
(SE 7 kph)
- 10SM
Time Weather Temperature Dewpoint Humidity Pressure Winds Precip Visibility


Weather for websites

WeatherForYou.com, LLC is not responsible for any damages or problems caused by this service. Current weather conditions are obtained from the closest station including government and personal stations which may have varying degrees of accuracy. Weather forecasts are derived from the NOAA NDFD. Like all things, this site belongs to Jesus Christ... He just trusts us to maintain it. If you have any questions or comments email webmaster@weatherforyou.com

Copyright © 2015, WeatherForYou.com LLC. All rights reserved.